Time,TemperatureF,DewpointF,PressureIn,WindDirection,WindDirectionDegrees,WindSpeedMPH,WindSpeedGustMPH,Humidity,HourlyPrecipIn,Conditions,Clouds,dailyrainin,SoftwareType,DateUTC
2015-07-30 00:03:00,74.0,36.0,-100.00,North,354,2.0,3.0,25,-99.99,,,-99.99,,2015-07-30 07:03:00,
2015-07-30 00:12:00,74.0,36.0,-100.00,North,354,2.0,3.0,25,-99.99,,,-99.99,,2015-07-30 07:12:00,
2015-07-30 00:44:00,74.0,36.0,-100.00,North,360,1.0,3.0,25,-99.99,,,-99.99,,2015-07-30 07:44:00,
2015-07-30 00:53:00,74.0,36.0,-100.00,North,360,1.0,3.0,25,-99.99,,,-99.99,,2015-07-30 07:53:00,
2015-07-30 01:03:00,74.0,36.0,-100.00,North,360,1.0,3.0,25,-99.99,,,-99.99,,2015-07-30 08:03:00,
2015-07-30 01:12:00,74.0,36.0,-100.00,North,360,1.0,3.0,25,-99.99,,,-99.99,,2015-07-30 08:12:00,
2015-07-30 01:43:00,73.0,36.0,-100.00,North,5,2.0,3.0,26,-99.99,,,-99.99,,2015-07-30 08:43:00,
2015-07-30 01:53:00,73.0,36.0,-100.00,North,5,2.0,3.0,26,-99.99,,,-99.99,,2015-07-30 08:53:00,
2015-07-30 02:03:00,73.0,36.0,-100.00,North,5,2.0,3.0,26,-99.99,,,-99.99,,2015-07-30 09:03:00,
2015-07-30 02:13:00,73.0,36.0,-100.00,North,5,2.0,3.0,26,-99.99,,,-99.99,,2015-07-30 09:13:00,
2015-07-30 02:53:00,72.0,35.0,-100.00,North,7,2.0,3.0,26,-99.99,,,-99.99,,2015-07-30 09:53:00,
2015-07-30 03:03:00,72.0,35.0,-100.00,North,7,2.0,3.0,26,-99.99,,,-99.99,,2015-07-30 10:03:00,
2015-07-30 03:13:00,72.0,35.0,-100.00,North,7,2.0,3.0,26,-99.99,,,-99.99,,2015-07-30 10:13:00,
2015-07-30 03:44:00,72.0,36.0,-100.00,North,2,2.0,4.0,27,-99.99,,,-99.99,,2015-07-30 10:44:00,
2015-07-30 03:54:00,72.0,36.0,-100.00,North,2,2.0,4.0,27,-99.99,,,-99.99,,2015-07-30 10:54:00,
2015-07-30 04:03:00,72.0,36.0,-100.00,North,2,2.0,4.0,27,-99.99,,,-99.99,,2015-07-30 11:03:00,
2015-07-30 04:13:00,72.0,36.0,-100.00,North,2,2.0,4.0,27,-99.99,,,-99.99,,2015-07-30 11:13:00,
2015-07-30 04:44:00,72.0,35.0,-100.00,North,359,2.0,4.0,26,-99.99,,,-99.99,,2015-07-30 11:44:00,
2015-07-30 04:54:00,72.0,35.0,-100.00,North,359,2.0,4.0,26,-99.99,,,-99.99,,2015-07-30 11:54:00,
2015-07-30 05:03:00,72.0,35.0,-100.00,North,359,2.0,4.0,26,-99.99,,,-99.99,,2015-07-30 12:03:00,
2015-07-30 05:12:00,72.0,35.0,-100.00,North,359,2.0,4.0,26,-99.99,,,-99.99,,2015-07-30 12:12:00,
2015-07-30 05:44:00,70.0,34.0,-100.00,North,10,2.0,4.0,26,-99.99,,,-99.99,,2015-07-30 12:44:00,
2015-07-30 05:54:00,70.0,34.0,-100.00,North,10,2.0,4.0,26,-99.99,,,-99.99,,2015-07-30 12:54:00,
2015-07-30 06:03:00,70.0,34.0,-100.00,North,10,2.0,4.0,26,-99.99,,,-99.99,,2015-07-30 13:03:00,
2015-07-30 06:13:00,70.0,34.0,-100.00,North,10,2.0,4.0,26,-99.99,,,-99.99,,2015-07-30 13:13:00,
2015-07-30 06:44:00,70.0,33.0,-100.00,North,5,2.0,4.0,25,-99.99,,,-99.99,,2015-07-30 13:44:00,
2015-07-30 06:53:00,70.0,33.0,-100.00,North,5,2.0,4.0,25,-99.99,,,-99.99,,2015-07-30 13:53:00,
2015-07-30 07:03:00,70.0,33.0,-100.00,North,5,2.0,4.0,25,-99.99,,,-99.99,,2015-07-30 14:03:00,
2015-07-30 07:12:00,70.0,33.0,-100.00,North,5,2.0,4.0,25,-99.99,,,-99.99,,2015-07-30 14:12:00,
2015-07-30 07:44:00,73.0,34.0,-100.00,North,10,1.0,4.0,24,-99.99,,,-99.99,,2015-07-30 14:44:00,
2015-07-30 08:12:00,73.0,34.0,-100.00,North,10,1.0,4.0,24,-99.99,,,-99.99,,2015-07-30 15:12:00,
2015-07-30 09:12:00,82.0,37.0,-100.00,North,-9999,0.0,-999.0,20,-99.99,,,-99.99,,2015-07-30 16:12:00,
2015-07-30 10:04:00,87.0,41.0,-100.00,South,179,2.0,4.0,20,-99.99,,,-99.99,,2015-07-30 17:04:00,
2015-07-30 10:14:00,87.0,41.0,-100.00,South,179,2.0,4.0,20,-99.99,,,-99.99,,2015-07-30 17:14:00,
2015-07-30 11:16:00,92.0,39.0,-100.00,SSW,196,1.0,5.0,16,-99.99,,,-99.99,,2015-07-30 18:16:00,
2015-07-30 12:04:00,96.0,39.0,-100.00,SSW,211,2.0,10.0,14,-99.99,,,-99.99,,2015-07-30 19:04:00,
2015-07-30 12:13:00,96.0,39.0,-100.00,SSW,211,2.0,10.0,14,-99.99,,,-99.99,,2015-07-30 19:13:00,
2015-07-30 12:44:00,97.0,38.0,-100.00,South,179,5.0,12.0,13,-99.99,,,-99.99,,2015-07-30 19:44:00,
2015-07-30 12:54:00,97.0,38.0,-100.00,South,179,5.0,12.0,13,-99.99,,,-99.99,,2015-07-30 19:54:00,
2015-07-30 13:12:00,97.0,38.0,-100.00,South,179,5.0,-999.0,13,-99.99,,,-99.99,,2015-07-30 20:12:00,
2015-07-30 14:44:00,100.0,40.0,-100.00,SW,216,2.0,11.0,13,-99.99,,,-99.99,,2015-07-30 21:44:00,
2015-07-30 15:02:00,100.0,40.0,-100.00,SW,216,2.0,11.0,13,-99.99,,,-99.99,,2015-07-30 22:02:00,
2015-07-30 18:43:00,90.0,43.0,-100.00,SW,218,1.0,10.0,20,-99.99,,,-99.99,,2015-07-31 01:43:00,
2015-07-30 18:53:00,90.0,43.0,-100.00,SW,218,1.0,10.0,20,-99.99,,,-99.99,,2015-07-31 01:53:00,
2015-07-30 19:02:00,90.0,43.0,-100.00,SW,218,1.0,10.0,20,-99.99,,,-99.99,,2015-07-31 02:02:00,
2015-07-30 19:12:00,90.0,43.0,-100.00,SW,218,1.0,10.0,20,-99.99,,,-99.99,,2015-07-31 02:12:00,